Voltar ao catálogo

THORAD AGENA D DEB

AtivoPO
NORAD 5185·DEBRIS·🇺🇸 United States

Lançado Apr 8, 1970 de Vandenberg Space Force Base

Loading…

Próximas Passagens (próximas 24 horas)

TLE

AtualizadoSource: Space-Track

Época: Sep 14, 2026, 11:24 UTC

1 05185U 70025KB  26257.47562755  .00001359  00000-0  96814-3 0  9995
2 05185  99.6384 335.6855 0062072 343.8362  16.0819 13.98434297814346

Acompanhe THORAD AGENA D DEB em tempo real com AllMySat

Download on the App Store